Location: Blythe
(33.2930°N, 82.2020°W)
Time: 12:00:13
(UTC-04:00)

Hubble Space Telescope - Visible Passes

Search period start: 25 April 2015 00:00
Search period end: 05 May 2015 00:00
Orbit: 542 x 546 km, 28.5° (Epoch: 24 April)

Date Brightness Start Highest point End Pass type
(mag) Time Alt. Az. Time Alt. Az. Time Alt. Az.
25 Apr 2.6 05:55:08 13° SW 05:56:18 15° SSW 05:58:35 10° SSE visible
26 Apr 2.9 05:47:37 11° SSW 05:47:39 11° SSW 05:48:58 10° S visible
29 Apr 2.9 20:47:30 10° S 20:48:33 11° SSE 20:49:43 10° SE visible
30 Apr 2.7 20:37:42 10° S 20:39:53 14° SSE 20:42:08 10° SE visible
30 Apr 3.0 22:17:00 10° SW 22:18:05 16° SW 22:18:05 16° SW visible
01 May 2.3 22:08:16 10° WSW 22:10:27 25° SW 22:10:27 25° SW visible
02 May 1.6 21:59:34 10° WSW 22:02:42 35° SSW 22:02:42 35° SSW visible
03 May 1.3 21:50:54 10° WSW 21:54:49 42° S 21:54:49 42° S visible
04 May 1.2 21:42:15 10° WSW 21:46:12 43° S 21:46:49 39° SSE visible
